Location: Newark
(34.1333°N, 7.9667°W)
Time: 14:52:38
(UTC+00:00)

S-56A Canister/Altair - Pass Details

Date: 09 December 2021
Orbit: 634 x 2499 km, 38.9° (Epoch: 25 January)

Event Time Altitude Azimuth Distance (km) Brightness Sun altitude
Exits shadow 04:51:48 24° 162° (SSE) 1,446 9.1 -31.1°
Drops below altitude 10° 04:53:51 10° 146° (SE) 2,104 10.2 -30.7°
Sets 04:56:04 0° 138° (SE) 2,943 11.2 -30.3°
